This is the latest recevied weather packets stored in our database for station/object IZ1GCT. If no packets are shown the sender has not sent any weather packets the latest 1 day(s).
| Time | Temp. | Humidity | Pressure | Rain* | Wind** | Luminosity | Snow |
|---|---|---|---|---|---|---|---|
| 1778082352 | 20° C | 50% | 1009.2 hPa | 0 mm | - | - | - |
| 1778080851 | 19.44° C | 50% | 1009.3 hPa | 0 mm | - | - | - |
| 1778080252 | 19.44° C | 31% | 1009.4 hPa | 0 mm | - | - | - |
| 1778079951 | 20° C | 30% | 1009.5 hPa | 0 mm | - | - | - |
| 1778079352 | 21.11° C | 30% | 1009.3 hPa | 0 mm | - | - | - |
| 1778078751 | 21.11° C | 28% | 1009.5 hPa | 0 mm | - | - | - |
| 1778077851 | 20° C | 30% | 1009.4 hPa | 0 mm | - | - | - |
| 1778077251 | 19.44° C | 30% | 1009.7 hPa | 0 mm | - | - | - |
| 1778075751 | 19.44° C | 31% | 1009.9 hPa | 0 mm | - | - | - |
| 1778074552 | 21.67° C | 32% | 1009.5 hPa | 0 mm | - | - | - |
| 1778073951 | 21.11° C | 30% | 1009.5 hPa | 0 mm | - | - | - |
| 1778073652 | 21.67° C | 31% | 1009.6 hPa | 0 mm | - | - | - |
| 1778073051 | 20.56° C | 31% | 1009.7 hPa | 0 mm | - | - | - |
| 1778072151 | 20.56° C | 50% | 1009.8 hPa | 0 mm | - | - | - |
| 1778071251 | 19.44° C | 52% | 1009.7 hPa | 0 mm | - | - | - |
| 1778070651 | 18.33° C | 54% | 1009.9 hPa | 0 mm | - | - | - |
| 1778069452 | 18.33° C | 54% | 1009.5 hPa | 0 mm | - | - | - |
| 1778068552 | 18.33° C | 55% | 1009.4 hPa | 0 mm | - | - | - |
| 1778067051 | 19.44° C | 52% | 1009.3 hPa | 0 mm | - | - | - |
| 1778066452 | 18.33° C | 52% | 1009.2 hPa | 0 mm | - | - | - |
| 1778065851 | 18.89° C | 52% | 1009.2 hPa | 0 mm | - | - | - |
| 1778065551 | 19.44° C | 52% | 1009.3 hPa | 0 mm | - | - | - |
| 1778064951 | 19.44° C | 51% | 1009.5 hPa | 0 mm | - | - | - |
| 1778064652 | 19.44° C | 53% | 1009.6 hPa | 0 mm | - | - | - |
| 1778064051 | 20° C | 53% | 1009.6 hPa | 0 mm | - | - | - |
* Rain latest hour (hover to see other rain measurements)
** Current wind speed in m/s (hover to see current wind gust speed)